Location: Rumah Dana
(3.1167°N, 113.0167°E)
Time: 13:23:29
(UTC+00:00)

NOSS 3-3 (A) - Pass Details

Date: 03 August 2024
Orbit: 734 x 1477 km, 63.4° (Epoch: 06 September)

Event Time Altitude Azimuth Distance (km) Brightness Sun altitude
Exits shadow 20:43:30 76° 206° (SSW) 755 3.2 -25.3°
Maximum altitude 20:43:54 89° 287° (WNW) 736 3.3 -25.2°
Drops below altitude 10° 20:48:59 10° 23° (NNE) 2,269 6.5 -24.0°
Sets 20:51:24 0° 23° (NNE) 3,241 7.4 -23.4°
